N4RCT Weather Reports


Display with metric or nautical units.
time (UTC)temp
F
wind
direction
speed
MPH
gust
MPH
rain 1hr
in
rain 24hr
in
rain mn
in
humidity
%
barometer
mb
20260509182516 73 126 1.0 2.0 0.00 0.00 0.00 75 1011.2
20260509182013 74 149 0.0 0.0 0.00 0.00 0.00 73 1011.2
20260509181511 73 93 0.0 1.0 0.00 0.00 0.00 75 1011.2
20260509181010 72 184 2.0 3.0 0.00 0.00 0.00 77 1011.2
20260509180503 72 128 0.0 1.0 0.00 0.00 0.00 74 1011.2
20260509180002 71 180 1.0 2.0 0.00 0.00 0.00 78 1011.4
20260509175457 72 118 0.0 1.0 0.00 0.00 0.00 79 1011.4
20260509174954 71 90 0.0 0.0 0.00 0.00 0.00 76 1011.5
20260509174450 70 175 1.0 1.0 0.00 0.00 0.00 79 1011.3
20260509173944 70 175 1.0 2.0 0.00 0.00 0.00 81 1011.3
20260509173439 69 160 1.0 1.0 0.00 0.00 0.00 80 1011.4
20260509172936 69 157 0.0 0.0 0.00 0.00 0.00 80 1011.2
20260509172433 69 155 0.0 0.0 0.00 0.00 0.00 80 1011.3
20260509171929 68 166 0.0 0.0 0.00 0.00 0.00 81 1011.1
20260509171425 69 207 2.0 2.0 0.00 0.00 0.00 80 1011.4
20260509170922 68 126 0.0 0.0 0.00 0.00 0.00 81 1011.5
20260509170417 68 134 0.0 0.0 0.00 0.00 0.00 81 1011.6
20260509165913 69 171 0.0 1.0 0.00 0.00 0.00 81 1011.6
20260509165407 69 131 0.0 1.0 0.00 0.00 0.00 80 1011.8
20260509164903 69 118 0.0 1.0 0.00 0.00 0.00 82 1012.0
20260509164359 68 155 0.0 0.0 0.00 0.00 0.00 81 1011.8
20260509163855 68 102 0.0 0.0 0.00 0.00 0.00 85 1012.3
20260509163352 67 135 0.0 0.0 0.00 0.00 0.00 85 1012.1
20260509162851 66 215 2.0 2.0 0.00 0.00 0.00 85 1012.3
20260509162344 66 159 1.0 1.0 0.00 0.00 0.00 87 1012.4
20260509161841 66 122 0.0 0.0 0.00 0.00 0.00 89 1012.2
20260509161337 65 169 0.0 0.0 0.00 0.00 0.00 91 1012.4
20260509160833 65 156 1.0 2.0 0.00 0.00 0.00 90 1012.3
20260509160329 64 138 0.0 0.0 0.00 0.00 0.00 94 1012.1
20260509155824 63 125 0.0 0.0 0.00 0.00 0.00 94 1012.2
20260509155321 62 115 0.0 0.0 0.00 0.00 0.00 97 1012.5
20260509154817 62 139 0.0 0.0 0.00 0.00 0.00 98 1012.4
20260509154314 61 147 0.0 0.0 0.00 0.00 0.00 99 1012.2
20260509153811 61 139 0.0 0.0 0.00 0.00 0.00 99 1012.3
20260509153307 61 148 0.0 0.0 0.00 0.00 0.00 99 1012.2
20260509152804 61 143 0.0 0.0 0.00 0.00 0.00 99 1012.6
20260509152300 60 146 0.0 0.0 0.00 0.00 0.00 99 1012.6
20260509151757 60 155 0.0 0.0 0.00 0.00 0.00 99 1012.8
20260509151253 60 128 0.0 0.0 0.00 0.00 0.00 99 1012.3
20260509150752 60 136 0.0 0.0 0.00 0.00 0.00 99 1012.3
20260509150250 60 133 0.0 0.0 0.00 0.00 0.00 99 1012.7
20260509145747 60 137 0.0 0.0 0.00 0.00 0.00 99 1012.7
20260509145246 60 150 0.0 0.0 0.00 0.00 0.00 99 1012.6
20260509144743 60 185 0.0 1.0 0.00 0.00 0.00 99 1012.7
20260509144240 60 130 0.0 0.0 0.00 0.00 0.00 99 1012.5
20260509143737 60 131 0.0 0.0 0.00 0.00 0.00 99 1012.6
20260509143235 60 131 0.0 0.0 0.00 0.00 0.00 99 1012.6
20260509142730 60 129 0.0 0.0 0.00 0.00 0.00 99 1012.6
20260509142227 60 135 0.0 0.0 0.00 0.00 0.00 99 1012.5
20260509141722 59 116 0.0 0.0 0.00 0.00 0.00 99 1012.4
20260509141220 59 139 0.0 0.0 0.00 0.00 0.00 99 1012.2
20260509140716 60 149 0.0 0.0 0.00 0.00 0.00 99 1012.0
20260509140214 59 136 0.0 0.0 0.00 0.00 0.00 99 1012.0
20260509135711 59 94 0.0 0.0 0.00 0.00 0.00 99 1011.9
20260509135209 60 150 0.0 0.0 0.00 0.00 0.00 99 1011.7
20260509134705 59 128 0.0 0.0 0.00 0.00 0.00 99 1011.6
20260509134203 59 128 0.0 0.0 0.00 0.00 0.00 99 1011.4
20260509133700 59 129 0.0 0.0 0.00 0.00 0.00 99 1011.5
20260509133157 59 111 0.0 0.0 0.00 0.00 0.00 99 1011.4
20260509132655 59 113 0.0 0.0 0.00 0.00 0.00 98 1011.5
20260509132154 59 107 0.0 0.0 0.00 0.00 0.00 98 1011.5
20260509131649 59 117 0.0 0.0 0.00 0.00 0.00 99 1011.5
20260509131146 59 116 0.0 0.0 0.00 0.00 0.00 99 1011.6
20260509130642 59 129 0.0 0.0 0.00 0.00 0.00 99 1011.5
20260509130138 59 118 0.0 0.0 0.00 0.00 0.00 99 1011.6
20260509125635 58 117 0.0 0.0 0.00 0.00 0.00 99 1011.8
20260509125132 58 133 0.0 0.0 0.00 0.00 0.00 99 1011.8
20260509124628 58 110 0.0 0.0 0.00 0.00 0.00 99 1011.6
20260509124126 58 110 0.0 0.0 0.00 0.00 0.00 99 1011.6
20260509123623 58 116 0.0 0.0 0.00 0.00 0.00 99 1011.7
20260509123120 58 112 0.0 0.0 0.00 0.00 0.00 99 1011.5
20260509122616 57 112 0.0 0.0 0.00 0.00 0.00 99 1011.4
20260509122113 57 129 0.0 0.0 0.00 0.00 0.00 99 1011.5
20260509121609 57 116 0.0 0.0 0.00 0.00 0.00 99 1011.5
20260509121107 57 109 0.0 0.0 0.00 0.00 0.00 99 1011.5
20260509120605 57 112 0.0 0.0 0.00 0.00 0.00 99 1011.3
20260509120103 57 112 0.0 0.0 0.00 0.00 0.00 99 1011.2
20260509115600 57 115 0.0 0.0 0.00 0.00 0.00 99 1011.2
20260509115058 57 117 0.0 0.0 0.00 0.00 0.00 99 1011.2
20260509114556 57 117 0.0 0.0 0.00 0.00 0.00 99 1011.2
20260509114054 57 107 0.0 0.0 0.00 0.00 0.00 99 1010.9
20260509113552 57 112 0.0 0.0 0.00 0.00 0.00 99 1010.9
20260509113050 56 124 0.0 0.0 0.00 0.00 0.00 99 1010.9
20260509112546 56 131 0.0 0.0 0.00 0.00 0.00 99 1010.9
20260509112043 56 131 0.0 0.0 0.00 0.00 0.00 99 1011.1
20260509111540 56 131 0.0 0.0 0.00 0.00 0.00 99 1010.8
20260509111037 56 128 0.0 0.0 0.00 0.00 0.00 99 1011.1
20260509110534 56 128 0.0 0.0 0.00 0.00 0.00 99 1011.0
20260509110031 56 134 0.0 0.0 0.00 0.00 0.00 99 1011.1
20260509105529 56 118 0.0 0.0 0.00 0.00 0.00 99 1010.8
20260509105027 56 107 0.0 0.0 0.00 0.00 0.00 99 1010.8
20260509104523 56 116 0.0 0.0 0.00 0.00 0.00 99 1011.0
20260509104020 56 130 0.0 0.0 0.00 0.00 0.00 99 1011.0
20260509103518 56 108 0.0 0.0 0.00 0.00 0.00 99 1010.8
20260509103016 56 111 0.0 0.0 0.00 0.00 0.00 99 1010.7
20260509102513 55 117 0.0 0.0 0.00 0.00 0.00 99 1011.0
20260509102010 55 113 0.0 0.0 0.00 0.00 0.00 99 1011.0
20260509101506 55 115 0.0 0.0 0.00 0.00 0.00 99 1011.0
20260509101003 55 111 0.0 0.0 0.00 0.00 0.00 99 1011.2
20260509100500 55 115 0.0 0.0 0.00 0.00 0.00 99 1011.2
20260509095957 55 121 0.0 0.0 0.00 0.00 0.00 99 1011.2
20260509095454 55 115 0.0 0.0 0.00 0.00 0.00 99 1011.2
20260509094951 55 116 0.0 0.0 0.00 0.00 0.00 99 1011.0
20260509094447 55 115 0.0 0.0 0.00 0.00 0.00 99 1011.2
20260509093945 55 127 0.0 0.0 0.00 0.00 0.00 99 1011.4
20260509093442 55 128 0.0 0.0 0.00 0.00 0.00 99 1011.2
20260509092940 55 117 0.0 0.0 0.00 0.00 0.00 99 1011.1
20260509092438 55 115 0.0 0.0 0.00 0.00 0.00 99 1011.4
20260509091937 55 126 0.0 0.0 0.00 0.00 0.00 99 1011.7
20260509091433 54 126 0.0 0.0 0.00 0.00 0.00 99 1011.6
20260509090930 54 132 0.0 0.0 0.00 0.00 0.00 99 1011.7
20260509090427 54 131 0.0 0.0 0.00 0.00 0.00 99 1011.3
20260509085925 54 121 0.0 0.0 0.00 0.00 0.00 99 1011.1
20260509085422 54 109 0.0 0.0 0.00 0.00 0.00 99 1010.7
20260509084918 55 112 0.0 0.0 0.00 0.00 0.00 99 1011.0
20260509084415 54 110 0.0 0.0 0.00 0.00 0.00 99 1011.2
20260509083913 54 114 0.0 0.0 0.00 0.00 0.00 99 1011.2
20260509083409 54 128 0.0 0.0 0.00 0.00 0.00 99 1010.9
20260509082906 54 107 0.0 0.0 0.00 0.00 0.00 99 1011.0
20260509082403 54 128 0.0 0.0 0.00 0.00 0.00 99 1011.1
20260509081900 54 128 0.0 0.0 0.00 0.00 0.00 99 1011.0
20260509081357 54 135 0.0 0.0 0.00 0.00 0.00 99 1011.1
20260509080855 54 115 0.0 0.0 0.00 0.00 0.00 99 1010.9
20260509080353 54 115 0.0 0.0 0.00 0.00 0.00 99 1011.1
20260509075851 54 117 0.0 0.0 0.00 0.00 0.00 99 1011.2
20260509075347 54 117 0.0 0.0 0.00 0.00 0.00 99 1011.1
20260509074845 54 124 0.0 0.0 0.00 0.00 0.00 99 1011.3
20260509074342 54 126 0.0 0.0 0.00 0.00 0.00 99 1011.3
20260509073838 54 117 0.0 0.0 0.00 0.00 0.00 99 1011.4
20260509073335 53 124 0.0 0.0 0.00 0.00 0.00 99 1011.3
20260509072832 53 132 0.0 0.0 0.00 0.00 0.00 99 1011.1
20260509072328 53 118 0.0 0.0 0.00 0.00 0.00 99 1011.3
20260509071825 53 117 0.0 0.0 0.00 0.00 0.00 99 1011.1
20260509071322 53 117 0.0 0.0 0.00 0.00 0.00 99 1011.1
20260509070819 53 118 0.0 0.0 0.00 0.00 0.00 99 1011.1
20260509070315 53 126 0.0 0.0 0.00 0.00 0.00 99 1010.9
20260509065812 52 126 0.0 0.0 0.00 0.00 0.00 99 1011.2
20260509065308 52 126 0.0 0.0 0.00 0.00 0.00 99 1011.0
20260509064804 52 126 0.0 0.0 0.00 0.00 0.00 99 1011.1
20260509064302 52 133 0.0 0.0 0.00 0.00 0.00 99 1011.4
20260509063759 52 115 0.0 0.0 0.00 0.00 0.00 99 1011.3
20260509063255 52 134 0.0 0.0 0.00 0.00 0.00 99 1011.4
20260509062753 52 113 0.0 0.0 0.00 0.00 0.00 99 1011.3
20260509062250 52 117 0.0 0.0 0.00 0.00 0.00 99 1011.5
20260509061747 52 113 0.0 0.0 0.00 0.00 0.00 99 1011.3
20260509061245 52 118 0.0 0.0 0.00 0.00 0.00 99 1011.1
20260509060742 52 124 0.0 0.0 0.00 0.00 0.00 99 1011.4
20260509060238 52 126 0.0 0.0 0.00 0.00 0.00 99 1011.8
20260509055734 52 139 0.0 0.0 0.00 0.00 0.00 99 1012.0
20260509055230 52 113 0.0 0.0 0.00 0.00 0.00 99 1011.8
20260509054727 53 112 0.0 0.0 0.00 0.00 0.00 99 1012.3
20260509054224 53 114 0.0 0.0 0.00 0.00 0.00 99 1012.5
20260509053722 53 114 0.0 0.0 0.00 0.00 0.00 99 1012.5
20260509053219 53 115 0.0 0.0 0.00 0.00 0.00 99 1012.4
20260509052716 53 116 0.0 0.0 0.00 0.00 0.00 99 1012.6
20260509052214 53 119 0.0 0.0 0.00 0.00 0.00 99 1012.4
20260509051711 53 119 0.0 0.0 0.00 0.00 0.00 99 1012.6
20260509051209 53 128 0.0 0.0 0.00 0.00 0.00 99 1012.4
20260509050706 53 127 0.0 0.0 0.00 0.00 0.00 99 1012.5
20260509050202 53 128 0.0 0.0 0.00 0.00 0.00 99 1012.2
20260509045700 53 115 0.0 0.0 0.00 0.00 0.00 99 1012.5
20260509045156 53 124 0.0 0.0 0.00 0.00 0.00 99 1012.4
20260509044654 53 124 0.0 0.0 0.00 0.00 0.00 99 1012.3
20260509044151 53 124 0.0 0.0 0.00 0.00 0.00 99 1012.1
20260509043647 53 130 0.0 0.0 0.00 0.00 0.00 99 1012.2
20260509043143 53 128 0.0 0.0 0.00 0.00 0.00 99 1012.3
20260509042640 53 131 0.0 0.0 0.00 0.00 0.00 99 1012.2
20260509042136 54 130 0.0 0.0 0.00 0.00 0.00 99 1012.3
20260509041633 54 114 0.0 0.0 0.00 0.00 0.00 99 1012.1
20260509041130 54 113 0.0 0.0 0.00 0.00 0.00 99 1012.1
20260509040629 54 118 0.0 0.0 0.00 0.00 0.00 99 1012.3
20260509040125 54 121 0.0 0.0 0.00 0.00 0.00 99 1012.3
20260509035622 54 130 0.0 0.0 0.00 0.00 0.00 99 1012.5
20260509035118 54 114 0.0 0.0 0.00 0.00 0.00 99 1012.4
20260509034616 54 112 0.0 0.0 0.00 0.00 0.00 99 1012.6
20260509034113 54 114 0.0 0.0 0.00 0.00 0.00 99 1012.8
20260509033610 54 128 0.0 0.0 0.00 0.00 0.00 99 1012.9
20260509033107 55 128 0.0 0.0 0.00 0.00 0.00 98 1013.0
20260509032604 55 108 0.0 0.0 0.00 0.00 0.00 99 1013.1
20260509032101 55 110 0.0 0.0 0.00 0.00 0.00 98 1013.2
20260509031559 55 110 0.0 0.0 0.00 0.00 0.00 98 1013.0
20260509031056 55 110 0.0 0.0 0.00 0.00 0.00 98 1012.9
20260509030554 55 110 0.0 0.0 0.00 0.00 0.00 98 1012.8
20260509030051 55 110 0.0 0.0 0.00 0.00 0.00 98 1012.8
20260509025547 55 111 0.0 0.0 0.00 0.00 0.00 98 1013.1
20260509025043 55 111 0.0 0.0 0.00 0.00 0.00 98 1012.9
20260509024538 55 111 0.0 0.0 0.00 0.00 0.00 98 1013.0
20260509024035 55 110 0.0 0.0 0.00 0.00 0.00 98 1013.0
20260509023533 56 114 0.0 0.0 0.00 0.00 0.00 97 1013.2
20260509023029 56 114 0.0 0.0 0.00 0.00 0.00 97 1013.2
20260509022526 56 116 0.0 0.0 0.00 0.00 0.00 97 1013.5
20260509022024 56 113 0.0 0.0 0.00 0.00 0.00 97 1013.2
20260509021521 57 117 0.0 0.0 0.00 0.00 0.00 97 1013.2
20260509021018 57 117 0.0 0.0 0.00 0.00 0.00 96 1013.2
20260509020516 57 122 0.0 0.0 0.00 0.00 0.00 96 1013.0
20260509020012 57 128 0.0 0.0 0.00 0.00 0.00 96 1013.1
20260509015512 58 117 0.0 0.0 0.00 0.00 0.00 95 1012.8
20260509015008 58 116 0.0 0.0 0.00 0.00 0.00 95 1013.1
20260509014505 58 117 0.0 0.0 0.00 0.00 0.00 95 1013.1
20260509014001 58 116 0.0 0.0 0.00 0.00 0.00 95 1012.8
20260509013458 58 116 0.0 0.0 0.00 0.00 0.00 94 1012.9
20260509012954 58 124 0.0 0.0 0.00 0.00 0.00 94 1012.8
20260509012450 58 128 0.0 0.0 0.00 0.00 0.00 94 1012.9
20260509011947 59 128 0.0 0.0 0.00 0.00 0.00 93 1012.9
20260509011445 59 117 0.0 0.0 0.00 0.00 0.00 93 1012.8
20260509010942 59 125 0.0 0.0 0.00 0.00 0.00 93 1013.0
20260509010440 59 122 0.0 0.0 0.00 0.00 0.00 93 1012.8
20260509005936 59 117 0.0 0.0 0.00 0.00 0.00 93 1012.9
20260509005435 59 117 0.0 0.0 0.00 0.00 0.00 93 1013.0
20260509004935 60 122 0.0 0.0 0.00 0.00 0.00 92 1012.9
20260509004431 60 116 0.0 0.0 0.00 0.00 0.00 92 1012.7
20260509003929 59 126 0.0 0.0 0.00 0.00 0.00 90 1012.9
20260509003427 60 124 0.0 0.0 0.00 0.00 0.00 92 1012.9
20260509002923 59 126 0.0 0.0 0.00 0.00 0.00 92 1012.7
20260509002422 60 126 0.0 0.0 0.00 0.00 0.00 92 1012.9
20260509001918 60 126 0.0 0.0 0.00 0.00 0.00 94 1012.9
20260509001415 60 126 0.0 0.0 0.00 0.00 0.00 94 1013.0
20260509000912 60 130 0.0 0.0 0.00 0.00 0.00 94 1012.7
20260509000410 60 129 0.0 0.0 0.00 0.00 0.00 94 1012.7
20260508235905 61 131 0.0 0.0 0.00 0.00 0.00 94 1013.0
20260508235403 61 123 0.0 0.0 0.00 0.00 0.00 93 1012.8
20260508234900 61 131 0.0 0.0 0.00 0.00 0.00 93 1012.9
20260508234356 61 142 0.0 0.0 0.00 0.00 0.00 92 1012.8
20260508233855 62 135 0.0 0.0 0.00 0.00 0.00 90 1012.4
20260508233354 62 126 0.0 0.0 0.00 0.00 0.00 90 1012.4
20260508232850 62 124 0.0 0.0 0.00 0.00 0.00 91 1012.7
20260508232347 63 124 0.0 0.0 0.00 0.00 0.00 91 1012.7
20260508231845 63 124 0.0 0.0 0.00 0.00 0.00 91 1012.7
20260508231341 64 113 0.0 0.0 0.00 0.00 0.00 88 1012.7
20260508230838 64 112 0.0 0.0 0.00 0.00 0.00 86 1012.7
20260508230334 64 112 0.0 0.0 0.00 0.00 0.00 84 1012.7
20260508225832 65 112 0.0 0.0 0.00 0.00 0.00 81 1012.8
20260508225328 65 111 0.0 0.0 0.00 0.00 0.00 80 1012.6
20260508224827 65 111 0.0 0.0 0.00 0.00 0.00 79 1012.7
20260508224324 65 115 0.0 0.0 0.00 0.00 0.00 78 1012.7
20260508223821 66 118 0.0 0.0 0.00 0.00 0.00 77 1012.7
20260508223318 66 118 0.0 0.0 0.00 0.00 0.00 75 1012.9
20260508222816 66 119 0.0 0.0 0.00 0.00 0.00 75 1012.6
20260508222313 66 123 0.0 0.0 0.00 0.00 0.00 75 1012.9
20260508221809 66 124 0.0 0.0 0.00 0.00 0.00 73 1012.9
20260508221305 66 124 0.0 0.0 0.00 0.00 0.00 74 1012.9
20260508220801 67 130 0.0 0.0 0.00 0.00 0.00 71 1012.7
20260508220258 67 129 0.0 0.0 0.00 0.00 0.00 70 1013.1
20260508215754 67 130 0.0 0.0 0.00 0.00 0.00 70 1012.9
20260508215251 67 130 0.0 0.0 0.00 0.00 0.00 70 1012.9
20260508214749 67 116 0.0 0.0 0.00 0.00 0.00 67 1012.8
20260508214245 67 121 0.0 0.0 0.00 0.00 0.00 68 1012.6
20260508213742 67 129 0.0 0.0 0.00 0.00 0.00 69 1013.0
20260508213239 67 128 0.0 0.0 0.00 0.00 0.00 66 1012.9
20260508212735 67 123 0.0 0.0 0.00 0.00 0.00 67 1012.7
20260508212232 68 123 0.0 0.0 0.00 0.00 0.00 68 1012.6
20260508211727 68 126 0.0 0.0 0.00 0.00 0.00 66 1012.9
20260508211223 68 116 0.0 0.0 0.00 0.00 0.00 60 1012.7
20260508210721 68 123 0.0 0.0 0.00 0.00 0.00 64 1012.8
20260508210218 68 131 0.0 0.0 0.00 0.00 0.00 62 1013.0
20260508205715 68 126 0.0 0.0 0.00 0.00 0.00 64 1012.9
20260508205211 69 126 0.0 0.0 0.00 0.00 0.00 64 1012.8
20260508204707 69 118 0.0 0.0 0.00 0.00 0.00 61 1012.8
20260508204204 69 112 0.0 0.0 0.00 0.00 0.00 63 1012.9
20260508203700 69 124 0.0 0.0 0.00 0.00 0.00 62 1013.2
20260508203156 69 123 0.0 0.0 0.00 0.00 0.00 61 1013.1
20260508202652 69 126 0.0 0.0 0.00 0.00 0.00 61 1013.0
20260508202150 69 135 0.0 0.0 0.00 0.00 0.00 62 1013.2
20260508201646 70 128 0.0 0.0 0.00 0.00 0.00 68 1013.2
20260508201143 70 107 0.0 0.0 0.00 0.00 0.00 59 1013.2
20260508200640 70 113 0.0 0.0 0.00 0.00 0.00 58 1013.3
20260508200136 71 116 0.0 0.0 0.00 0.00 0.00 55 1013.0
20260508195633 70 116 0.0 0.0 0.00 0.00 0.00 57 1013.2
20260508195129 70 118 0.0 0.0 0.00 0.00 0.00 54 1013.2
20260508194626 71 121 0.0 0.0 0.00 0.00 0.00 52 1013.1
20260508194123 70 120 0.0 0.0 0.00 0.00 0.00 50 1013.5
20260508193620 70 136 0.0 0.0 0.00 0.00 0.00 48 1013.3
20260508193116 71 131 0.0 0.0 0.00 0.00 0.00 52 1013.5
20260508192613 71 124 0.0 0.0 0.00 0.00 0.00 45 1013.6
20260508192110 71 124 0.0 0.0 0.00 0.00 0.00 52 1013.9
20260508191607 71 119 0.0 0.0 0.00 0.00 0.00 53 1013.8
20260508191104 71 129 0.0 0.0 0.00 0.00 0.00 48 1014.0
20260508190601 71 132 0.0 0.0 0.00 0.00 0.00 54 1014.4
20260508190057 72 133 0.0 0.0 0.00 0.00 0.00 53 1014.3
20260508185554 72 92 0.0 0.0 0.00 0.00 0.00 46 1014.4
20260508185052 72 117 0.0 0.0 0.00 0.00 0.00 46 1014.1
20260508184549 72 119 0.0 0.0 0.00 0.00 0.00 47 1014.5
20260508184046 73 86 0.0 0.0 0.00 0.00 0.00 46 1014.2
20260508183542 72 106 0.0 0.0 0.00 0.00 0.00 42 1014.4
20260508183038 72 125 0.0 0.0 0.00 0.00 0.00 45 1014.7